Tracking 31027 objects as of 19-Jul-2025
HD Live streaming from Space Station
objects crossing your sky now

OBJECT F

Track OBJECT F now!
10-day predictions


NORAD ID: 57429
Int'l Code: 2023-104F
Perigee: 442.3 km
Apogee: 478.8 km
Inclination: 97.3 °
Period: 93.7 minutes
Semi major axis: 6831 km
RCS: Unknown
Launch date: July 23, 2023
Source: People's Republic of China (PRC)
Launch site: Taiyaun Space Center, China (TSC)
Your satellite tracking list
FENGYUN 1C DEB
Track 1 satellite(s)




NASA's NSSDC Master Catalog

Two Line Element Set (TLE):
1 57429U 23104F   25199.85279969  .00012085  00000-0  32629-3 0  9999
2 57429  97.3027 267.9892 0026710 167.3386 192.8536 15.37541970111009
Source of the keplerian elements: AFSPC